[[{"header":{"parameterUnit":"m.s-1","parameterCategory":1,"la1":30.2992,"la2":30.254,"lo1":-89.0895,"lo2":-89.0443,"dy":0.0025,"dx":0.0025,"nx":19,"ny":19,"refTime":"2026-03-18T09:00:00:Z","depth":0,"parameterNumber":2,"parameterNumberName":"U-component_of_WINDS"},"data":[0,0,0,2.8381,2.8384,2.8514,2.8514,2.869,2.8692,0,0,0,0,0,0,0,0,0,0,0,2.835,2.8352,2.8381,2.8384,2.8514,2.8514,2.869,2.8692,0,0,0,0,0,0,0,0,0,0,0,2.835,2.8352,2.8353,2.8385,2.8514,2.8515,2.8689,2.8587,0,0,0,0,0,0,0,0,0,0,2.8459,2.844,2.8351,2.8354,2.8385,2.8514,2.8515,2.8582,2.8594,2.8636,0,2.8677,0,2.8687,2.8704,2.8705,0,0,0,2.8378,2.8431,2.8458,2.8354,2.8387,2.8514,2.8454,2.8589,2.8602,2.8651,2.8679,2.8686,2.869,2.8705,2.8706,2.8969,2.8971,0,0,2.8371,2.8378,2.8449,2.8467,2.845,2.845,2.8458,2.8596,2.8627,2.868,2.869,2.8693,2.8707,2.8708,2.8968,2.897,0,0,0,2.8354,2.8374,2.8397,2.846,2.8483,2.8453,2.8463,2.8621,2.8628,2.8691,2.8695,2.8708,2.871,2.8966,2.8968,2.9049,0,0,0,2.835,2.8364,2.8395,2.8401,2.8481,2.8554,2.8485,2.8619,2.8634,2.8694,2.8708,2.8712,2.8965,2.8967,2.9043,2.9085,0,0,0,2.8339,2.8363,2.8384,2.8401,2.8457,2.8552,2.8567,2.8622,2.8637,2.8705,2.8712,2.8963,2.8967,2.9038,2.9077,2.9153,0,0,0,2.833,2.8457,2.8386,2.8528,2.8456,2.8601,2.8566,2.8674,2.8742,2.8709,2.8965,2.8968,2.9036,2.9072,2.9148,2.9218,2.9249,0,0,2.8494,2.8477,2.8559,2.8499,2.8659,2.8581,2.8752,2.8808,2.8808,2.8915,2.8921,2.9045,2.9076,2.9152,2.9421,2.9445,0,0,0,2.8613,2.8672,2.8713,2.8778,2.8823,2.8863,2.8891,2.8911,2.9001,2.8865,2.9094,2.9113,2.9157,2.919,2.9211,2.9246,2.8985,2.8984,2.8984,2.8856,2.8847,2.8981,2.8986,2.9049,2.9075,2.9123,2.9154,2.9129,2.9183,2.9214,2.9378,2.9417,2.9433,2.947,2.9252,2.9253,2.9253,2.9253,2.9092,2.9172,2.9132,2.9247,2.9235,2.9332,2.9359,2.9337,2.9423,2.9355,2.9394,2.9319,2.946,2.9491,2.9259,2.9258,2.9257,2.9257,2.9256,2.9248,2.9285,2.9305,2.9393,2.9462,2.9462,2.9545,2.9532,2.9521,2.9559,2.9588,2.9587,2.9581,2.9574,2.9575,2.9575,2.9576,2.9576,2.9576,2.9401,2.9422,2.9493,2.9547,2.9584,2.963,2.9653,2.9688,2.9723,2.9707,2.9707,2.9674,2.9476,2.9425,2.9585,2.9584,2.9583,2.9582,2.9581,2.9641,2.9583,2.9694,2.973,2.9789,2.9855,2.9836,2.9907,2.9935,2.9974,2.9932,2.9789,2.977,2.9754,2.9711,2.9936,2.9936,2.9936,2.9936,2.9771,2.9759,2.9866,2.9924,2.9979,2.9972,3.0092,3.0109,3.0118,3.0133,3.0099,3.0042,3.0025,3.0016,2.9994,2.9954,3.0236,3.0236,3.0236,2.9915,2.9908,3.0015,3.0021,3.0065,3.0101,3.0213,3.0278,3.0276,3.0248,3.0143,3.0131,3.0038,3.001,2.9979,2.9945,2.9871,0,0]},{"header":{"parameterUnit":"m.s-1","parameterCategory":1,"la1":30.2992,"la2":30.254,"lo1":-89.0895,"lo2":-89.0443,"dy":0.0025,"dx":0.0025,"nx":19,"ny":19,"refTime":"2026-03-18T09:00:00:Z","depth":0,"parameterNumber":3,"parameterNumberName":"V-component_of_WINDS"},"data":[0,0,0,3.4548,3.4548,3.4548,3.4548,3.4566,3.4567,0,0,0,0,0,0,0,0,0,0,0,3.4562,3.4563,3.4548,3.4548,3.4548,3.4548,3.4566,3.4567,0,0,0,0,0,0,0,0,0,0,0,3.4562,3.4562,3.4563,3.4549,3.4548,3.4548,3.4566,3.4559,0,0,0,0,0,0,0,0,0,0,3.4556,3.4583,3.4562,3.4563,3.4549,3.4548,3.4548,3.4558,3.456,3.4575,0,3.4595,0,3.4581,3.4569,3.4569,0,0,0,3.4538,3.4582,3.457,3.4563,3.4549,3.4549,3.4545,3.4559,3.456,3.4576,3.4595,3.4595,3.4581,3.4569,3.457,3.4697,3.4698,0,0,3.4538,3.4569,3.4569,3.4571,3.4575,3.4546,3.4546,3.4559,3.458,3.4595,3.4595,3.4582,3.457,3.457,3.4696,3.4697,0,0,0,3.4545,3.457,3.4556,3.4571,3.457,3.4546,3.4546,3.458,3.4573,3.4595,3.4582,3.457,3.457,3.4694,3.4696,3.4779,0,0,0,3.4544,3.4574,3.4557,3.4576,3.457,3.4575,3.4566,3.4572,3.4572,3.4582,3.457,3.4571,3.4693,3.4695,3.4774,3.4813,0,0,0,3.4557,3.4575,3.458,3.4578,3.4579,3.4574,3.4568,3.4571,3.4565,3.4569,3.4571,3.4692,3.4695,3.477,3.4805,3.4853,0,0,0,3.4579,3.4656,3.4582,3.4661,3.4579,3.4627,3.4568,3.4602,3.4615,3.457,3.4693,3.4696,3.4769,3.4801,3.4848,3.4896,3.492,0,0,3.4693,3.467,3.4714,3.4648,3.4717,3.4625,3.4705,3.4687,3.4659,3.4685,3.4688,3.4776,3.4805,3.4852,3.5047,3.5067,0,0,0,3.4761,3.4792,3.4804,3.4819,3.4808,3.4799,3.4767,3.476,3.478,3.468,3.4806,3.4822,3.4848,3.487,3.4886,3.4904,3.4708,3.4708,3.4707,3.4965,3.4924,3.4993,3.4951,3.4966,3.493,3.4936,3.492,3.4876,3.4906,3.4912,3.5036,3.5063,3.5075,3.5095,3.4937,3.4937,3.4937,3.4938,3.5125,3.5161,3.5098,3.5142,3.5097,3.5132,3.5099,3.5065,3.5089,3.5029,3.505,3.4985,3.5097,3.5112,3.4943,3.4942,3.4942,3.4941,3.4941,3.5252,3.5262,3.5252,3.5266,3.5281,3.5235,3.5261,3.5219,3.518,3.5201,3.5201,3.52,3.519,3.5205,3.5205,3.5206,3.5206,3.5206,3.5206,3.5386,3.5372,3.54,3.5392,3.5394,3.5391,3.5353,3.5353,3.5341,3.5309,3.5308,3.5258,3.5117,3.5081,3.5213,3.5212,3.5211,3.521,3.521,3.5558,3.5512,3.5555,3.5556,3.5541,3.5556,3.5503,3.5505,3.5499,3.5512,3.5457,3.5361,3.5334,3.5321,3.529,3.5468,3.5468,3.5468,3.5468,3.5663,3.5646,3.5678,3.5682,3.5682,3.5637,3.5682,3.5652,3.5613,3.5606,3.5574,3.5531,3.5519,3.5499,3.5482,3.5453,3.5668,3.5668,3.5668,3.5765,3.5745,3.5793,3.5755,3.574,3.5726,3.5765,3.577,3.5717,3.5676,3.5598,3.5589,3.5519,3.5499,3.5455,3.5429,3.5374,0,0]}]]